Temperature
22 22 22 21 22 22 22 22 22 22 23 23 23 23 22 22 21 20 20 19 18 18 18 17 17 17 17 17 17 16 16 16 16 16 16 15 15 15 15 15 15 15 15 15
21 22 22 22 22 22 22 23 22 23 23 23 23 22 22 22 21 20 19 19 18 18 17 17 17 17 17 17 16 16 16 16 16 16 15 15 15 15 15 15 15 15 15 15
20 22 22 21 22 22 22 23 23 22 23 23 23 22 22 21 20 19 19 18 18 18 17 17 17 17 17 16 16 16 16 16 16 15 15 15 15 15 15 15 15 15 15 14
20 20 19 21 23 23 23 23 24 23 23 23 23 22 21 21 20 19 19 18 18 17 17 17 17 17 17 16 16 16 16 16 15 15 15 15 15 15 15 14 14 14 14 14
19 19 20 22 23 23 22 22 24 23 23 23 22 22 21 20 20 19 18 18 17 17 17 17 17 17 16 16 16 16 16 15 15 15 15 15 15 15 14 14 14 14 14 14
19 18 19 21 23 23 23 21 23 23 23 22 22 20 20 20 20 19 18 18 17 17 17 17 17 17 16 16 16 16 16 15 15 15 15 15 15 15 14 14 14 14 14 14
19 19 20 22 22 23 21 21 22 22 22 22 22 21 20 20 19 19 18 18 17 17 17 17 17 16 16 16 16 16 15 15 15 15 15 15 14 14 14 14 14 14 13 13
19 18 19 21 22 21 21 22 22 22 22 22 21 20 20 19 19 18 18 17 17 17 16 16 16 16 16 16 16 15 15 15 15 15 15 14 14 14 14 14 13 13 13 13
19 19 20 20 21 21 21 21 21 21 21 21 20 20 19 19 18 18 17 17 16 16 16 16 16 16 15 15 15 15 15 15 15 14 14 14 14 14 13 13 13 13 13 13
19 19 19 20 20 20 20 20 20 20 20 20 20 19 19 19 18 17 17 17 16 16 16 16 16 15 15 15 15 15 15 14 14 14 14 14 14 13 13 13 13 13 12 12
18 19 19 19 19 19 19 20 20 20 20 19 19 19 19 18 18 17 17 16 16 16 15 15 15 15 15 15 15 14 14 14 13 13 13 13 13 13 13 13 13 13 12 12
18 19 19 19 19 18 19 19 19 19 19 19 19 19 18 18 18 17 17 16 16 15 15 15 15 15 14 14 14 14 13 13 13 13 13 13 13 13 13 12 12 12 12 12
18 18 18 18 18 18 18 18 18 18 18 18 18 18 18 18 17 17 17 16 16 15 15 15 14 14 14 14 14 13 13 13 13 13 13 13 13 13 12 12 12 12 12 12
18 18 18 18 17 18 18 18 18 18 18 18 18 18 17 17 17 17 16 16 16 15 15 14 14 14 14 13 13 13 13 13 13 13 13 12 12 12 12 12 12 12 11 11
17 17 17 17 17 17 17 17 17 17 17 17 17 17 17 17 16 16 16 16 15 15 14 14 14 14 13 13 13 13 13 13 13 12 12 12 12 12 12 11 11 11 11 11
16 16 16 16 16 16 16 16 17 17 17 17 16 16 16 16 16 16 15 15 15 14 14 14 14 13 13 13 13 13 13 13 12 12 12 11 11 11 11 11 11 11 11 11
16 16 16 16 16 16 16 16 16 16 16 16 16 16 15 15 15 15 15 15 14 14 14 14 14 13 13 13 13 13 12 12 12 12 11 11 11 11 11 11 11 11 10 10
15 15 15 15 15 15 15 15 15 15 15 15 15 15 15 15 14 14 14 14 14 14 13 13 13 13 13 13 13 12 12 12 12 11 11 11 11 11 10 10 10 10 10 9
14 15 15 15 15 15 15 15 15 15 15 15 15 14 14 14 14 14 14 14 13 13 13 13 13 13 13 12 12 12 12 11 11 11 11 11 10 10 10 10 10 10 10 9
14 14 14 14 14 15 14 14 14 14 14 14 14 14 14 13 13 13 13 13 13 13 13 13 12 12 12 12 12 12 11 11 11 11 10 10 10 10 10 10 10 9 9 9
13 13 13 13 14 14 14 14 14 14 14 14 14 13 13 13 13 13 13 12 12 12 12 12 12 12 12 12 11 11 11 11 10 10 10 10 10 10 10 9 9 9 9 9
13 13 13 13 13 13 13 13 13 13 13 13 13 13 13 12 12 12 12 12 12 12 12 12 12 12 11 11 11 11 11 10 10 10 10 10 10 10 9 9 9 9 8 8
12 12 12 12 12 12 12 13 13 13 13 13 13 13 12 12 12 12 12 12 12 12 11 11 11 11 11 11 11 11 10 10 10 10 10 10 9 9 9 9 9 8 8 8
11 12 12 12 12 12 12 12 12 12 12 12 12 12 12 12 12 12 12 11 11 11 11 11 11 11 10 10 10 10 10 10 10 10 9 9 9 9 9 8 8 8 8 7
11 11 11 11 12 12 12 12 12 12 12 12 12 12 11 11 11 11 11 11 11 11 11 10 10 10 10 10 10 10 10 10 10 9 9 9 9 9 8 8 8 7 7 7
10 11 11 11 11 11 11 11 11 11 11 11 11 11 11 11 11 11 11 10 10 10 10 10 10 10 10 10 9 10 9 9 9 9 9 9 8 8 8 8 8 7 7 7
10 10 10 10 11 11 11 11 11 11 11 11 10 10 10 10 10 10 10 10 10 10 10 10 9 9 9 9 9 9 9 9 9 8 8 8 8 8 8 7 7 7 7 7
Wind_Speed
10 9 8 9 11 10 10 9 9 7 6 3 2 2 4 5 6 7 8 8 8 7 6 6 7 7 7 7 7 7 7 6 6 6 6 5 5 4 3 3 4 4 4 4
11 12 11 12 13 12 12 11 11 10 7 2 2 2 3 5 6 6 7 7 8 8 7 7 7 7 7 6 7 7 7 7 6 6 6 6 5 4 4 3 3 4 4 5
10 10 11 12 10 11 11 11 10 9 5 2 2 3 3 4 6 6 6 6 6 7 7 6 7 7 6 6 6 7 7 7 7 7 6 6 5 5 4 4 4 4 5 6
8 9 11 5 4 7 9 10 8 6 3 2 2 3 3 4 6 6 6 6 6 6 6 6 6 7 7 7 7 7 7 7 7 7 7 6 5 5 4 4 4 4 5 6
6 8 8 7 5 5 7 8 6 5 5 3 3 3 2 4 6 6 6 6 6 6 6 6 6 7 7 8 8 7 7 7 8 8 7 7 7 6 4 5 4 4 5 5
7 7 7 4 2 3 6 7 3 3 4 4 4 4 3 4 5 6 6 5 5 5 5 5 6 6 7 7 7 7 7 7 7 7 7 7 7 6 5 5 5 4 4 4
10 9 7 3 1 3 5 2 0 2 3 4 4 3 4 5 5 6 7 5 5 5 5 5 6 6 7 7 7 7 6 6 6 7 7 7 6 5 6 5 5 5 5 4
8 9 6 1 3 3 1 1 0 0 1 3 3 3 5 6 7 7 7 6 5 5 4 5 6 7 6 6 6 6 7 6 6 6 6 6 6 5 5 6 6 5 4 4
4 4 1 0 1 1 2 2 1 0 2 3 4 4 5 6 7 7 7 7 5 5 4 4 5 6 6 5 6 6 7 7 6 6 5 6 7 6 5 5 5 4 4 4
5 4 3 3 2 2 3 3 3 2 2 2 3 4 5 5 6 6 6 6 6 5 5 4 4 5 6 6 6 7 7 6 6 6 6 6 5 5 5 5 5 5 4 4
7 5 3 3 3 4 4 3 2 1 1 1 2 4 4 4 6 6 6 6 6 5 5 4 4 4 5 6 7 7 7 6 6 5 5 5 4 3 4 3 5 6 5 5
6 5 4 3 3 4 4 3 2 1 1 2 2 3 3 3 4 6 6 6 6 6 5 5 5 5 5 5 6 7 6 6 5 5 5 5 6 4 5 3 5 6 6 6
6 6 5 4 4 4 4 3 2 2 2 2 2 3 3 3 3 5 6 6 6 7 6 6 6 5 6 6 6 6 6 6 5 5 5 6 6 6 5 3 5 5 6 7
6 6 5 4 4 4 4 3 2 2 2 2 2 2 3 4 4 5 5 5 5 6 6 6 6 6 6 6 6 6 6 6 6 5 5 5 5 5 5 6 4 2 2 5
7 6 5 4 4 4 3 2 2 2 2 3 3 2 3 3 3 4 4 4 5 5 6 6 6 5 6 6 6 6 5 5 5 5 5 5 5 5 5 6 5 5 4 3
7 6 4 4 4 4 3 2 2 3 2 2 3 3 3 3 3 3 4 4 5 5 5 6 6 6 6 6 5 5 5 7 6 5 5 5 5 5 5 5 6 5 5 5
7 6 5 4 5 4 4 4 4 3 3 3 3 3 3 4 3 4 3 3 4 4 5 5 5 6 6 6 5 4 4 6 7 6 5 5 5 5 5 5 5 5 5 6
7 6 6 6 5 5 4 4 4 3 2 2 3 4 4 5 5 5 5 4 4 3 4 5 5 5 5 6 5 4 4 5 4 4 4 4 5 5 5 5 5 6 5 6
5 5 5 5 5 5 4 4 3 3 3 3 3 5 5 4 4 5 5 5 5 5 4 5 7 6 5 5 5 4 5 5 5 4 4 5 5 4 4 4 5 5 5 5
4 5 5 5 5 4 3 3 3 3 3 3 4 4 4 4 5 5 5 5 4 4 4 5 6 5 5 6 5 4 5 5 5 5 4 5 5 4 4 4 5 5 5 5
5 5 5 5 4 4 4 4 4 4 3 4 4 5 4 4 5 5 5 4 4 5 6 7 5 4 5 5 6 4 5 5 5 5 5 5 5 5 4 4 4 4 4 4
4 4 4 4 4 4 4 4 4 4 4 4 4 5 4 4 5 4 4 4 5 7 6 5 4 5 6 6 4 4 5 5 5 5 5 5 5 5 5 4 4 4 4 4
4 4 5 5 4 4 4 4 4 4 5 5 5 5 5 4 5 5 4 4 5 7 5 4 6 8 9 6 5 5 5 5 5 5 5 5 5 5 5 5 4 4 4 4
4 4 4 3 3 4 4 3 3 3 4 4 4 4 4 4 3 3 4 6 7 7 4 6 9 9 8 5 5 5 5 5 5 5 5 5 4 4 4 4 4 4 4 5
4 4 3 3 3 3 3 3 3 3 3 3 3 2 3 3 4 4 5 6 7 7 5 7 10 9 6 5 5 5 5 5 5 5 5 5 5 5 4 4 4 4 4 4
4 3 2 2 2 1 1 2 2 2 2 2 2 2 2 3 4 5 4 6 7 6 5 5 6 6 5 4 5 5 5 6 6 5 5 5 5 5 4 4 5 5 4 4
3 3 1 1 0 0 1 1 2 2 2 2 2 2 3 3 4 5 6 6 6 5 5 5 5 4 4 4 5 5 5 5 5 6 6 5 5 5 5 5 4 4 5 5
Wind_Direction
269 272 267 269 268 256 250 250 259 268 268 242 186 157 155 143 142 149 149 150 151 154 157 159 166 170 168 163 160 161 157 162 161 152 142 139 138 144 141 134 136 130 120 115
263 259 259 259 255 253 250 250 251 260 261 227 188 183 154 142 142 146 151 157 161 164 161 166 169 167 163 160 163 162 160 161 149 141 135 136 143 143 134 129 124 115 116 109
265 263 265 256 246 241 244 247 248 251 251 223 205 176 167 156 148 154 155 155 159 165 165 172 174 170 165 166 162 162 162 151 144 144 142 147 147 133 133 134 124 117 118 113
267 268 257 255 229 234 246 253 250 248 223 226 210 162 158 147 147 150 156 158 162 169 165 172 175 170 167 161 164 165 160 154 154 151 150 146 138 141 151 141 129 126 119 120
263 264 265 254 235 233 239 248 244 233 217 209 184 179 165 144 144 151 157 159 162 165 166 170 169 166 164 162 167 164 162 161 158 155 153 151 151 157 157 142 136 134 132 131
245 255 262 262 208 238 246 245 230 227 217 198 189 194 184 160 143 146 144 147 152 158 164 164 163 161 163 166 165 165 164 162 159 154 155 159 162 160 146 141 147 141 134 145
239 249 258 271 195 213 232 227 198 234 216 190 197 174 155 137 127 125 125 134 142 149 157 158 158 157 164 166 166 162 156 153 153 153 156 158 158 154 149 149 146 144 144 142
231 238 241 276 204 210 282 17 53 73 183 145 128 126 135 130 126 129 126 132 138 140 142 146 151 152 157 161 158 150 147 148 151 150 155 155 149 151 155 152 151 154 151 146
238 241 256 293 302 348 338 304 330 46 108 147 144 142 139 137 134 135 137 140 143 143 143 147 151 153 157 152 143 144 146 150 151 151 153 154 155 160 160 156 159 166 163 159
255 247 259 271 273 291 309 325 354 35 95 160 158 148 142 140 139 141 144 145 146 144 146 153 155 147 145 143 146 149 150 152 153 155 157 157 156 160 162 167 169 171 169 166
260 260 265 279 305 326 331 329 333 10 91 144 157 153 151 152 150 149 149 148 148 151 159 164 154 146 139 147 154 155 155 153 153 151 153 151 138 138 157 166 175 172 174 172
254 274 272 271 290 293 296 308 307 321 195 189 178 155 147 145 144 152 157 155 154 155 162 165 160 157 152 155 157 158 159 158 155 152 150 146 137 117 78 106 128 134 137 143
267 279 286 276 279 281 280 282 281 256 207 184 167 156 152 147 148 150 155 158 158 157 162 165 161 160 161 161 160 164 163 160 156 156 157 157 154 152 144 94 79 103 130 139
281 278 273 274 270 274 272 262 247 211 186 156 144 143 148 147 149 150 151 154 152 153 159 163 161 161 161 158 160 163 161 161 157 160 162 164 166 166 160 155 150 126 125 148
273 274 273 279 274 271 271 252 211 194 182 157 138 142 145 142 149 147 143 145 147 150 156 158 158 156 152 157 163 164 161 162 160 160 161 163 165 166 162 158 154 147 137 139
256 262 263 260 259 255 248 247 231 208 185 168 159 163 155 138 131 133 140 149 154 160 162 162 163 159 154 159 161 161 160 158 159 162 162 163 167 167 164 160 159 160 163 158
243 245 247 248 254 251 241 241 238 229 199 178 171 162 154 144 143 145 148 152 156 162 161 160 156 150 154 160 158 157 153 155 157 163 168 170 168 167 166 163 164 165 168 167
246 244 240 236 240 243 237 239 236 235 222 188 173 170 174 175 177 169 161 153 148 152 156 153 144 147 156 159 157 157 155 159 163 160 158 160 161 161 162 162 164 162 153 158
255 257 254 253 252 243 232 233 230 227 223 201 188 191 196 193 189 178 167 162 164 169 171 152 149 153 154 153 151 155 159 161 158 154 151 150 153 153 152 156 157 157 156 156
263 268 261 254 248 244 236 230 225 222 216 200 198 196 196 194 189 178 171 172 176 168 152 149 155 161 156 150 150 159 159 158 155 154 152 156 160 159 158 158 158 157 155 153
246 247 252 257 248 236 232 226 214 209 204 194 193 196 195 189 182 173 171 173 165 151 151 152 161 163 154 156 161 162 158 157 158 160 162 160 158 157 157 157 155 153 151 149
257 249 246 243 239 233 225 219 213 202 196 193 194 195 190 189 182 178 180 171 155 151 153 162 168 162 157 153 164 161 158 155 154 153 155 156 156 156 155 150 149 149 149 146
261 257 246 233 228 227 223 218 209 199 194 195 197 195 192 190 178 175 179 162 151 154 158 165 164 158 156 159 163 163 159 157 154 151 152 152 153 150 148 145 142 140 138 137
274 268 256 242 232 225 218 214 214 201 189 190 193 184 184 183 174 164 151 153 156 155 158 157 156 160 161 168 164 164 163 159 153 152 151 147 143 141 141 138 135 132 135 135
284 272 253 245 237 224 212 204 198 178 170 176 176 179 189 172 156 147 144 149 152 150 150 157 160 164 171 166 160 159 155 150 145 143 144 144 143 141 140 138 135 134 135 135
304 294 270 255 254 236 198 184 186 172 164 167 168 170 156 137 132 136 141 144 145 150 152 151 160 168 170 159 155 153 149 146 145 145 143 141 139 137 138 140 141 141 137 135
315 313 310 317 318 267 190 178 176 177 174 169 173 157 143 141 143 146 148 148 151 156 153 150 156 159 156 148 148 146 142 141 141 139 137 137 139 141 144 145 142 136 135 140
Height
1484 1483 1484 1486 1485 1483 1485 1485 1490 1487 1484 1480 1479 1481 1483 1485 1487 1490 1494 1497 1500 1502 1506 1509 1512 1515 1518 1521 1524 1527 1529 1532 1534 1537 1540 1542 1544 1546 1548 1550 1551 1553 1554 1555
1485 1481 1480 1482 1480 1479 1480 1480 1481 1480 1480 1476 1478 1481 1482 1484 1487 1490 1493 1496 1498 1501 1504 1507 1510 1513 1516 1519 1522 1525 1528 1530 1533 1535 1538 1540 1542 1544 1546 1548 1550 1551 1553 1554
1488 1480 1479 1483 1475 1475 1475 1473 1474 1478 1477 1475 1476 1479 1481 1483 1486 1489 1492 1494 1497 1499 1502 1505 1508 1511 1514 1517 1520 1523 1526 1528 1531 1533 1536 1538 1541 1543 1544 1546 1548 1550 1551 1552
1486 1486 1493 1476 1464 1467 1470 1469 1468 1470 1472 1473 1475 1478 1480 1482 1484 1487 1490 1492 1495 1498 1500 1503 1506 1509 1512 1515 1518 1521 1524 1526 1529 1531 1534 1536 1539 1541 1543 1545 1547 1548 1550 1551
1488 1489 1480 1469 1463 1464 1468 1469 1465 1467 1469 1472 1474 1477 1479 1481 1483 1486 1488 1491 1493 1496 1498 1501 1504 1507 1510 1513 1516 1519 1522 1524 1526 1529 1531 1534 1536 1538 1541 1543 1545 1547 1548 1550
1485 1490 1488 1470 1462 1462 1466 1470 1464 1465 1467 1470 1472 1477 1480 1480 1482 1484 1487 1489 1491 1494 1497 1499 1502 1505 1508 1511 1514 1516 1519 1522 1525 1527 1529 1532 1534 1536 1539 1541 1543 1545 1546 1548
1482 1484 1476 1464 1461 1462 1475 1472 1465 1465 1466 1468 1470 1474 1477 1478 1480 1483 1485 1488 1490 1492 1495 1497 1500 1503 1506 1509 1511 1514 1517 1520 1522 1525 1527 1530 1532 1534 1537 1539 1541 1542 1544 1546
1477 1482 1478 1463 1461 1465 1467 1464 1465 1465 1466 1467 1470 1473 1475 1477 1480 1482 1484 1487 1489 1491 1493 1496 1498 1500 1503 1506 1509 1512 1515 1518 1520 1522 1525 1528 1530 1532 1534 1536 1538 1540 1542 1544
1470 1471 1464 1463 1462 1464 1465 1465 1464 1465 1466 1467 1469 1472 1474 1477 1479 1481 1483 1485 1488 1490 1492 1494 1496 1499 1501 1504 1507 1509 1512 1515 1517 1520 1522 1525 1527 1529 1532 1534 1536 1538 1540 1541
1466 1464 1463 1463 1462 1463 1464 1464 1464 1464 1466 1467 1469 1471 1474 1476 1479 1481 1483 1485 1487 1489 1491 1493 1495 1497 1500 1502 1505 1507 1510 1513 1515 1517 1520 1522 1525 1527 1529 1531 1533 1535 1537 1538
1465 1462 1462 1461 1462 1463 1463 1463 1463 1464 1465 1467 1469 1471 1473 1475 1478 1480 1482 1484 1486 1487 1489 1491 1494 1496 1498 1500 1503 1505 1508 1510 1513 1515 1517 1519 1522 1524 1526 1529 1531 1532 1534 1535
1463 1461 1461 1461 1461 1462 1462 1462 1463 1464 1465 1466 1468 1470 1472 1474 1476 1478 1480 1482 1484 1486 1488 1490 1492 1494 1496 1498 1501 1503 1505 1508 1510 1512 1515 1517 1519 1521 1524 1526 1528 1530 1532 1533
1459 1459 1459 1460 1460 1461 1461 1461 1462 1463 1464 1465 1467 1469 1470 1473 1475 1476 1478 1480 1482 1484 1486 1488 1490 1492 1494 1496 1498 1500 1503 1505 1507 1509 1512 1514 1516 1518 1520 1523 1525 1527 1529 1531
1457 1457 1457 1458 1459 1459 1459 1460 1460 1461 1462 1463 1465 1467 1469 1471 1473 1475 1477 1479 1480 1482 1484 1486 1488 1490 1491 1494 1496 1498 1501 1503 1505 1507 1509 1511 1513 1515 1517 1519 1521 1523 1526 1527
1455 1455 1455 1456 1456 1457 1457 1458 1458 1459 1460 1462 1464 1466 1467 1469 1471 1473 1475 1477 1479 1481 1482 1484 1486 1488 1490 1492 1494 1496 1498 1500 1502 1504 1506 1508 1510 1512 1514 1516 1518 1520 1522 1524
1452 1452 1453 1453 1454 1455 1455 1456 1457 1458 1459 1461 1462 1464 1466 1468 1469 1471 1473 1475 1477 1478 1480 1482 1483 1485 1487 1489 1492 1494 1496 1498 1500 1502 1503 1505 1508 1509 1511 1513 1515 1517 1519 1520
1449 1449 1450 1451 1452 1453 1454 1455 1456 1457 1458 1459 1461 1462 1464 1466 1468 1469 1471 1473 1475 1476 1478 1480 1481 1483 1485 1487 1489 1491 1493 1495 1497 1499 1501 1503 1505 1507 1508 1510 1512 1514 1516 1518
1445 1446 1448 1449 1450 1451 1452 1453 1455 1455 1456 1458 1459 1461 1462 1464 1465 1467 1469 1471 1472 1474 1476 1477 1479 1481 1483 1485 1487 1489 1491 1493 1495 1496 1498 1500 1502 1504 1506 1507 1509 1511 1513 1515
1442 1443 1444 1445 1447 1448 1449 1451 1452 1453 1454 1456 1457 1458 1459 1461 1463 1465 1467 1468 1469 1471 1473 1475 1477 1478 1480 1482 1484 1486 1488 1490 1492 1494 1496 1498 1499 1501 1503 1505 1506 1508 1510 1512
1439 1440 1441 1442 1444 1445 1446 1447 1449 1450 1452 1453 1454 1455 1457 1458 1460 1462 1464 1465 1466 1468 1470 1472 1474 1475 1477 1479 1481 1483 1485 1487 1489 1491 1493 1495 1496 1498 1500 1502 1504 1506 1507 1509
1437 1437 1438 1439 1440 1441 1443 1444 1445 1447 1448 1450 1451 1452 1454 1455 1457 1459 1460 1462 1463 1465 1467 1469 1471 1472 1474 1476 1479 1481 1482 1484 1486 1488 1490 1492 1494 1496 1498 1500 1502 1503 1505 1506
1434 1435 1435 1436 1437 1438 1439 1441 1442 1443 1445 1446 1448 1449 1451 1452 1454 1456 1457 1458 1460 1462 1464 1466 1468 1470 1471 1473 1476 1477 1479 1481 1483 1485 1487 1489 1491 1493 1495 1497 1499 1500 1502 1503
1432 1432 1432 1433 1434 1435 1436 1437 1438 1440 1441 1442 1444 1445 1447 1449 1450 1452 1453 1455 1457 1459 1461 1462 1464 1466 1469 1471 1472 1474 1476 1478 1480 1482 1484 1486 1488 1490 1492 1494 1496 1497 1499 1500
1429 1429 1429 1430 1430 1431 1433 1434 1435 1436 1438 1439 1440 1442 1444 1445 1447 1448 1450 1452 1454 1456 1457 1459 1461 1463 1466 1467 1469 1471 1473 1476 1477 1479 1481 1483 1485 1487 1489 1491 1493 1494 1496 1497
1427 1427 1426 1427 1427 1428 1429 1431 1432 1433 1434 1436 1437 1439 1441 1442 1443 1444 1447 1449 1451 1452 1454 1456 1458 1461 1463 1465 1467 1469 1471 1473 1475 1476 1478 1480 1482 1484 1486 1488 1490 1492 1493 1494
1425 1424 1424 1425 1425 1426 1427 1428 1429 1430 1431 1433 1434 1436 1437 1439 1440 1442 1444 1446 1448 1449 1451 1453 1456 1458 1460 1462 1464 1466 1468 1469 1472 1474 1475 1477 1479 1481 1483 1485 1487 1488 1490 1491
1423 1423 1423 1423 1423 1424 1425 1426 1427 1428 1429 1430 1431 1432 1434 1435 1437 1439 1440 1442 1444 1446 1448 1451 1453 1455 1457 1459 1461 1463 1465 1467 1469 1471 1473 1475 1477 1479 1480 1482 1484 1485 1487 1488